Content
SEND FEEDBACK

Daily
Averages
Monthly
Summary
Canada

ANCIENNE LORETTE, QUEBEC


Home > North America > Canada > Quebec
Elevation: 230 feet     Latitude: 46 48N     Longitude: 071 22W

WEATHER
 
SELECT A DAY
Number of Records: 192,085;   Date Range: 6/30/96 - 7/28/14
 
SHARE

PRINT THIS DATA

[ ← Previous Day ]
WEATHER ALMANAC - DECEMBER 31, 2012
[ Next Day → ]
[ °C ]   °F
Weather ElementAverageHighLow
Temperature8.8 °F14 °F (7:00 pm)1.4 °F (4:00 am)
Dewpoint1.7 °F12.2 °F (11:00 pm)-7.6 °F (1:00 am)
Humidity73.3 %93 % (11:00 pm)60 % (1:00 am)
Barometer26.44 in30.00 in (3:00 am) (7:00 pm)
Wind Speed9 mph24.2 mph (1:00 am)
Wind Gust29.9 mph (1:00 am)
Weather ElementAverage
Visibility14.2 mi
Wind DirectionSSW (211.2 °)

Weather ElementTotal
Precipitation---
Heating Degree Days57.3 (Base 65)
Averaged from 35 records on December 31, 2012
WEATHER CONDITIONS BREAKOUT
WIND DIRECTION BREAKOUT
WEATHER BY HOUR - DECEMBER 31, 2012
[ °C ]   °F
Local TimeTemperatureDewpointHumidityBarometerVisibilityWind DirectionWind SpeedGust SpeedPrecipitationEventsConditions
1:00 AM3.0 °F-4.0 °F60 %29.96 inWSW (250°)15.0 mph
1:00 AM3.2 °F-7.6 °F61 %29.96 in15.0 miWest (260°)24.2 mph29.9 mphSnowLow Drifting Snow
2:00 AM3.2 °F-7.6 °F61 %29.98 in15.0 miWest (260°)20.7 mphSnowLow Drifting Snow
3:00 AM3.2 °F-5.8 °F66 %30.00 in15.0 miWSW (250°)17.3 mphSnowLow Drifting Snow
4:00 AM3.0 °F-3.0 °F63 %29.98 inWest (260°)12.7 mph
4:00 AM1.4 °F-5.8 °F72 %29.99 in15.0 miWest (260°)16.1 mphSnowLow Drifting Snow
5:00 AM3.2 °F-5.8 °F66 %29.98 in15.0 miWest (260°)13.8 mphPartly Cloudy
6:00 AM3.2 °F-5.8 °F66 %29.98 in15.0 miWSW (250°)9.2 mphPartly Cloudy
7:00 AM3.2 °F-4.0 °F72 %29.98 in15.0 miSW (230°)10.4 mphPartly Cloudy
7:00 AM2.0 °F-2.0 °F74 %29.98 inWSW (250°)4.6 mph
8:00 AM3.2 °F-4.0 °F72 %29.97 in30.0 miWSW (240°)12.7 mphMostly Cloudy
9:00 AM3.2 °F-4.0 °F72 %29.96 in30.0 miSW (230°)13.8 mphScattered Clouds
10:00 AM6.0 °F0.0 °F65 %29.95 inWSW (240°)6.9 mph
10:00 AM5.0 °F-2.2 °F72 %29.95 in30.0 miWSW (240°)11.5 mph17.3 mphPartly Cloudy
11:00 AM8.6 °F-0.4 °F67 %29.93 in30.0 miSW (230°)13.8 mphScattered Clouds
12:00 PM10.4 °F1.4 °F67 %29.90 in30.0 miSW (220°)13.8 mphPartly Cloudy
1:00 PM10.4 °F1.4 °F67 %29.87 in30.0 miSW (220°)13.8 mphMostly Cloudy
1:00 PM11.0 °F4.0 °F60 %29.86 inWSW (240°)8.1 mph
1:31 PM10.4 °F0.0 °F20.0 miSW (220°)13.8 mphSnowLight Snow
2:00 PM12.2 °F3.2 °F67 %29.84 in15.0 miSW (230°)13.8 mphSnowLight Snow
3:00 PM12.2 °F6.8 °F79 %29.82 in10.0 miWSW (240°)10.4 mphSnowLight Snow
4:00 PM12.2 °F6.8 °F79 %29.81 in20.0 miWSW (250°)5.8 mphSnowLight Snow
4:00 PM13.0 °F8.0 °F72 %29.81 inWSW (250°)4.6 mph
5:00 PM12.2 °F8.6 °F85 %29.78 in4.0 miWSW (240°)2.3 mphSnowLight Snow
6:00 PM12.2 °F8.6 °F85 %29.75 in2.0 miNNE (20°)4.6 mphSnowLight Snow
6:37 PM12.2 °F0.0 °F2.5 miNorth (350°)4.6 mphSnowLight Snow
7:00 PM14.0 °F10.4 °F86 %29.73 in3.0 miNorth (360°)2.3 mphSnowLight Snow
7:00 PM13.0 °F10.0 °F84 %29.73 inNorth (350°)1.2 mph
8:00 PM14.0 °F8.6 °F79 %29.68 in10.0 miNNE (20°)3.5 mphSnowLight Snow
9:00 PM14.0 °F10.4 °F86 %29.64 in3.0 miNorth (10°)2.3 mphSnowLight Snow
10:00 PM14.0 °F12.0 °F89 %29.60 inCalm
10:00 PM14.0 °F10.4 °F86 %29.60 in4.0 miCalmSnowLight Snow
10:43 PM14.0 °F0.0 °F2.5 miCalmSnowLight Snow
11:00 PM14.0 °F12.2 °F93 %29.58 in1.0 miCalmSnowLight Snow
11:42 PM14.0 °F0.0 °F1.5 miWSW (250°)5.8 mphSnowLight Snow
Hourly data recorded from CYQB, located miles away from Ancienne Lorette, Quebec







STORIES FROM OUR PARTNERS